{"data":{"norad_id":63636,"intl_designator":"2025-083C","name":"STARLINK-33864","alt_names":[],"object_type":"PAYLOAD","status":"ACTIVE","operator":null,"country":"US","launch_date":"2025-04-25","launch_site_code":"AFETR","launch_vehicle":null,"mission":null,"orbit_class":"UNKNOWN","rcs_meters":null,"size_class":null,"mass_kg":null,"dimensions":null,"purposes":["comms"],"wikipedia_slug":null,"has_3d_model":false,"image_url":null,"decayed_at":null,"tle_current":{"epoch":"2026-09-20T16:20:47.689728Z","epoch_age_seconds":137004,"freshness":"FRESH","line1":"1 63636U 25083C   26263.68110752  .00012410  00000+0  45971-3 0  9997","line2":"2 63636  43.0035 344.3995 0001464 266.1283  93.9401 15.27583043 79911","mean_motion":15.27583043,"eccentricity":0.0001464,"inclination_deg":43.0035,"raan_deg":344.3995,"arg_perigee_deg":266.1283,"mean_anomaly_deg":93.9401,"bstar":0.00045971,"rev_number":7991,"period_min":94.26656093092,"perigee_km":482.03550790758,"apogee_km":484.04446052855,"semimajor_km":6861.1769842181,"source":"CELESTRAK","updated_at":"2026-09-21T09:00:35.050898Z"}}}